"2009-06-04 00:00:00",944947,3.932,45.38,3.573,0.719,11.8,105.308,12.86,14.03,72.4,0,110.5,13.27,13.66,7.4
"2009-06-04 00:00:30",944948,3.558,44.02,1.38,0.213,11.32,105.2913,12.82,14,72.58,0,110.5,13.31,13.61,6.0
"2009-06-04 00:01:00",944949,3.59,42.78,1.715,0.147,11.43,105.2818,12.79,13.99,72.7,0,110.5,13.31,13.59,4.8
"2009-06-04 00:01:30",944950,4.687,53.23,7.535,1.295,14.23,105.2798,12.79,14.1,72.94,0,110.5,13.28,13.59,15.2
"2009-06-04 00:02:00",944951,3.373,46.93,5.461,0.661,12.62,105.2589,12.74,14.08,73.1,0,110.5,13.28,13.53,8.9
"2009-06-04 00:02:30",944952,3.143,47.17,5.55,0.814,13.05,105.2632,12.75,13.98,73.14,0,110.5,13.28,13.54,9.2
"2009-06-04 00:03:00",944953,3.004,52.67,5.567,1.237,12.83,105.2634,12.75,13.93,73.2,0,110.5,13.28,13.54,14.7
"2009-06-04 00:03:30",944954,3.026,52.97,8.47,1.13,13.49,105.2413,12.69,13.91,73.25,0,110.5,13.28,13.49,15.0
"2009-06-04 00:04:00",944955,2.439,49.7,4.901,0.792,12.65,105.2391,12.68,13.95,73.35,0,110.5,13.28,13.48,11.7
"2009-06-04 00:04:30",944956,3.979,54.9,7.971,1.192,15.2,105.24,12.69,14.01,73.49,0,110.5,13.28,13.48,16.9
"2009-06-04 00:05:00",944957,1.935,50.68,5.899,0.256,11.56,105.2262,12.65,13.84,73.39,0,110.5,13.32,13.45,12.7
"2009-06-04 00:05:30",944958,1.491,58.66,2.945,0.208,11.4,105.2093,12.61,13.73,73.38,0,110.5,13.32,13.40,20.7
"2009-06-04 00:06:00",944959,1.37,64.85,5.753,0.171,11.11,105.2062,12.6,13.72,73.5,0,110.5,13.32,13.40,26.8
"2009-06-04 00:06:30",944960,1.97,77.71,8.17,0.129,11.32,105.2062,12.6,13.69,73.68,0,110.5,13.32,13.40,39.7
"2009-06-04 00:07:00",944961,1.393,106,5.774,0.149,11.5,105.2062,12.6,13.69,73.83,0,110.5,13.32,13.40,68.0
"2009-06-04 00:07:30",944962,1.498,100.5,5.524,0.086,11.74,105.2059,12.6,13.66,73.97,0,110.5,13.32,13.40,62.5
"2009-06-04 00:08:00",944963,1.494,95.1,6.211,0.177,11.94,105.2045,12.6,13.66,74.03,0,110.4,13.32,13.39,57.1
"2009-06-04 00:08:30",944964,1.25,77.09,3.312,0.09,11.91,105.2003,12.59,13.64,74.03,0,110.4,13.32,13.38,39.1
"2009-06-04 00:09:00",944965,1.008,60.13,6.618,0.177,11.5,105.1966,12.58,13.64,74.11,0,110.4,13.32,13.37,22.1
"2009-06-04 00:09:30",944966,1.157,78.08,12.09,0.15,11.79,105.1952,12.57,13.62,74.19,0,110.4,13.33,13.37,40.1
"2009-06-04 00:10:00",944967,1.061,105.5,5.086,0.302,12.18,105.1941,12.57,13.63,74.2,0,110.4,13.33,13.37,67.5
"2009-06-04 00:10:30",944968,1.649,102.9,4.731,0.148,12.25,105.1975,12.58,13.62,74.23,0,110.4,13.33,13.37,64.9
"2009-06-04 00:11:00",944969,1.562,96,2.454,0.071,12.39,105.1989,12.58,13.64,74.23,0,110.4,13.33,13.38,58.0
"2009-06-04 00:11:30",944970,1.686,98.3,3.166,0.11,12.44,105.2042,12.6,13.63,74.23,0,110.4,13.32,13.39,60.3
"2009-06-04 00:12:00",944971,2.167,101.2,3.047,0.128,12.52,105.2051,12.6,13.62,74.28,0,110.5,13.32,13.39,63.2
"2009-06-04 00:12:30",944972,2.87,111.7,8.98,1.364,14.67,105.2062,12.6,13.82,74.56,0,110.5,13.28,13.40,73.7
"2009-06-04 00:13:00",944973,2.335,109.8,3.449,1.001,12.58,105.2062,12.6,13.62,74.47,0,110.4,13.28,13.40,71.8
"2009-06-04 00:13:30",944974,1.931,111.5,3.585,0.08,12.06,105.2062,12.6,13.63,74.5,0,110.4,13.32,13.40,73.5
"2009-06-04 00:14:00",944975,1.824,100.4,2.832,0.12,11.76,105.2062,12.6,13.63,74.45,0,110.4,13.32,13.40,62.4
"2009-06-04 00:14:30",944976,1.477,97.1,2.94,0.043,11.86,105.2062,12.6,13.66,74.42,0,110.4,13.32,13.40,59.1
"2009-06-04 00:15:00",944977,1.427,100.8,3.917,0.096,11.94,105.2088,12.61,13.65,74.43,0,110.4,13.32,13.40,62.8
"2009-06-04 00:15:30",944978,1.479,95.6,6.795,0.115,12.02,105.222,12.64,13.66,74.46,0,110.4,13.32,13.44,57.6
"2009-06-04 00:16:00",944979,2.918,80.9,9.13,1.376,14.19,105.2386,12.68,13.72,74.5,0,110.4,13.28,13.48,42.9
"2009-06-04 00:16:30",944980,3.926,81.4,7.027,1.492,14.95,105.24,12.69,13.89,74.73,0,110.4,13.28,13.48,43.4
"2009-06-04 00:17:00",944981,3.056,72.5,3.12,0.511,12.25,105.24,12.69,13.84,74.76,0,110.4,13.32,13.48,34.5
"2009-06-04 00:17:30",944982,4.747,75.11,9.84,1.319,13.11,105.24,12.69,13.78,74.95,0,110.4,13.28,13.48,37.1
"2009-06-04 00:18:00",944983,4.808,66.96,11.61,1.235,12.87,105.2414,12.69,13.88,75.47,0,110.5,13.28,13.49,29.0
"2009-06-04 00:18:30",944984,3.741,50.17,1.298,0.228,10.74,105.2496,12.71,13.74,75.61,0,110.5,13.32,13.51,12.2
"2009-06-04 00:19:00",944985,2.936,51.67,4.632,0.438,10.94,105.2521,12.72,13.78,75.7,0,110.5,13.32,13.51,13.7
"2009-06-04 00:19:30",944986,5.262,72.52,9.38,1.531,13.73,105.2499,12.71,13.88,75.73,0,110.5,13.28,13.51,34.5
"2009-06-04 00:20:00",944987,3.9,65.64,2.561,0.122,11.19,105.2434,12.7,13.8,75.78,0,110.5,13.32,13.49,27.6
"2009-06-04 00:20:30",944988,3.966,55.14,3.647,0.305,11.26,105.2403,12.69,13.76,75.8,0,110.5,13.32,13.48,17.1
"2009-06-04 00:21:00",944989,4.028,59.33,6.011,0.894,12.11,105.24,12.69,13.83,75.88,0,110.5,13.28,13.48,21.3
"2009-06-04 00:21:30",944990,4.967,83.3,10.57,1.321,15.72,105.24,12.69,14,75.99,0,110.5,13.28,13.48,45.3
"2009-06-04 00:22:00",944991,2.098,95.7,6.404,0.625,12.15,105.2386,12.68,13.73,75.48,0,110.5,13.28,13.48,57.7
"2009-06-04 00:22:30",944992,2.154,87.1,4.241,0.15,11.58,105.2296,12.66,13.72,75.21,0,110.4,13.32,13.46,49.1
"2009-06-04 00:23:00",944993,3.18,84.7,9.93,1.269,12.31,105.2147,12.62,13.7,75.09,0,110.5,13.28,13.42,46.7
"2009-06-04 00:23:30",944994,2.824,91.3,13.27,1.201,13.18,105.2062,12.6,13.83,75.27,0,110.5,13.28,13.40,53.3
"2009-06-04 00:24:00",944995,2.167,98.8,4.149,0.856,11.71,105.2062,12.6,13.7,75.01,0,110.5,13.28,13.40,60.8
"2009-06-04 00:24:30",944996,1.74,106.7,4.158,0.073,11.19,105.2062,12.6,13.69,74.8,0,110.5,13.32,13.40,68.7
"2009-06-04 00:25:00",944997,1.857,124.1,4.041,0.512,11.64,105.2059,12.6,13.67,74.65,0,110.5,13.28,13.40,86.1
"2009-06-04 00:25:30",944998,2.641,134.8,5.123,1.262,12.98,105.2,12.58,13.7,74.59,0,110.5,13.28,13.38,96.8
"2009-06-04 00:26:00",944999,3.424,149.4,8.86,1.286,14.66,105.1918,12.56,13.81,74.66,0,110.5,13.28,13.36,111.4
"2009-06-04 00:26:30",945000,2.53,146.5,1.595,0.079,12.11,105.1761,12.52,13.64,74.48,0,110.5,13.32,13.32,108.5
"2009-06-04 00:27:00",945001,2.549,146.7,1.02,0.033,12.1,105.1724,12.51,13.62,74.44,0,110.5,13.32,13.31,108.7
"2009-06-04 00:27:30",945002,2.51,148.6,0.752,0.032,12.31,105.1724,12.51,13.6,74.46,0,110.5,13.32,13.31,110.6
"2009-06-04 00:28:00",945003,2.447,148.6,0.833,0.049,12.54,105.1724,12.51,13.61,74.47,0,110.4,13.32,13.31,110.6
"2009-06-04 00:28:30",945004,3.689,160.4,6.726,1.349,15.35,105.1724,12.51,13.72,74.55,0,110.4,13.28,13.31,122.4
"2009-06-04 00:29:00",945005,3.209,161.6,6.268,1.117,14.81,105.1724,12.51,13.74,74.36,0,110.4,13.28,13.31,123.6
"2009-06-04 00:29:30",945006,3.174,162.5,6.433,1.148,14.88,105.1724,12.51,13.77,74.18,0,110.4,13.28,13.31,124.5
"2009-06-04 00:30:00",945007,3.002,156.8,6.425,1.112,13.2,105.1724,12.51,13.59,73.85,0,110.4,13.28,13.31,118.8
"2009-06-04 00:30:30",945008,3.577,156.1,6.249,1.33,14.04,105.1724,12.51,13.73,74.02,0,110.4,13.28,13.31,118.1
"2009-06-04 00:31:00",945009,2.409,153.7,1.051,0.039,11.99,105.1724,12.51,13.65,74.02,0,110.5,13.31,13.31,115.7
"2009-06-04 00:31:30",945010,2.365,157.4,1.577,0.044,11.88,105.1724,12.51,13.59,74.02,0,110.4,13.32,13.31,119.4
"2009-06-04 00:32:00",945011,2.348,163.9,1.597,0.058,12,105.1724,12.51,13.57,74.06,0,110.4,13.31,13.31,125.9
"2009-06-04 00:32:30",945012,2.61,172.4,2.684,0.14,12.57,105.1724,12.51,13.63,74.07,0,110.5,13.32,13.31,134.4
"2009-06-04 00:33:00",945013,3.991,178.8,7.026,1.332,15.48,105.1724,12.51,13.71,73.96,0,110.4,13.28,13.31,140.8
"2009-06-04 00:33:30",945014,2.497,167.5,1.331,0.041,12.94,105.1769,12.53,13.58,73.77,0,110.4,13.32,13.32,129.5
"2009-06-04 00:34:00",945015,2.571,165.4,0.645,0.032,12.34,105.1865,12.55,13.59,73.72,0,110.4,13.32,13.35,127.4
"2009-06-04 00:34:30",945016,2.684,165.7,0.633,0.03,12.41,105.1952,12.57,13.6,73.73,0,110.4,13.32,13.37,127.7
"2009-06-04 00:35:00",945017,2.65,167.1,2.694,0.034,13.01,105.1983,12.58,13.72,73.86,0,110.4,13.32,13.38,129.1
"2009-06-04 00:35:30",945018,3.663,169.1,8.4,1.362,14.48,105.2045,12.6,13.65,73.81,0,110.4,13.29,13.39,131.1
"2009-06-04 00:36:00",945019,2.579,160.3,0.743,0.034,12.81,105.2062,12.6,13.61,73.83,0,110.4,13.33,13.40,122.3
"2009-06-04 00:36:30",945020,2.597,159.5,0.94,0.044,12.82,105.2062,12.6,13.62,73.9,0,110.4,13.33,13.40,121.5
"2009-06-04 00:37:00",945021,4.765,167.3,6.624,1.273,16.09,105.2068,12.6,13.79,74.11,0,110.4,13.29,13.40,129.3
"2009-06-04 00:37:30",945022,4.244,159.6,5.847,1.227,15.16,105.2062,12.6,13.81,74.13,0,110.4,13.29,13.40,121.6
"2009-06-04 00:38:00",945023,2.754,149.8,2.958,0.118,12.02,105.2065,12.6,13.64,73.97,0,110.4,13.33,13.40,111.8
"2009-06-04 00:38:30",945024,2.353,149.2,2.198,0.069,11.86,105.2071,12.6,13.64,73.98,0,110.4,13.33,13.40,111.2
"2009-06-04 00:39:00",945025,2.432,146.2,1.57,0.067,12.03,105.2095,12.61,13.65,73.98,0,110.4,13.33,13.40,108.2
"2009-06-04 00:39:30",945026,3.579,155.1,6.845,1.354,14.64,105.2098,12.61,13.82,74.19,0,110.4,13.29,13.41,117.1
"2009-06-04 00:40:00",945027,2.234,136.3,6.486,0.594,12.59,105.2101,12.61,13.77,74.15,0,110.4,13.29,13.41,98.3
"2009-06-04 00:40:30",945028,1.774,123.7,7.581,0.073,11.97,105.213,12.62,13.72,74.17,0,110.4,13.33,13.41,85.7
"2009-06-04 00:41:00",945029,2.793,119.6,8.66,1.291,13.82,105.2142,12.62,13.76,74.32,0,110.4,13.29,13.42,81.6
"2009-06-04 00:41:30",945030,2.612,109,5.464,1.191,13.31,105.2154,12.62,13.83,74.5,0,110.4,13.29,13.42,71.0
"2009-06-04 00:42:00",945031,2.129,103.3,1.662,0.055,11.71,105.2184,12.63,13.68,74.46,0,110.4,13.33,13.43,65.3
"2009-06-04 00:42:30",945032,2.018,99.2,2.408,0.134,12.03,105.2184,12.63,13.68,74.65,0,110.4,13.33,13.43,61.2
"2009-06-04 00:43:00",945033,2.993,112.1,9.17,1.386,14.23,105.2228,12.64,13.85,75,0,110.4,13.29,13.44,74.1
"2009-06-04 00:43:30",945034,2.649,123.9,11.76,1.176,14.12,105.2243,12.65,13.84,75.09,0,110.4,13.29,13.44,85.9
"2009-06-04 00:44:00",945035,2.792,131.1,9.9,1.288,14.08,105.2294,12.66,13.79,74.98,0,110.4,13.29,13.46,93.1
"2009-06-04 00:44:30",945036,1.715,116.4,7.771,0.194,11.4,105.22,12.64,13.66,74.8,0,110.4,13.33,13.43,78.4
"2009-06-04 00:45:00",945037,1.775,101.6,10.57,0.386,11.45,105.2058,12.6,13.66,74.89,0,110.4,13.32,13.40,63.6
"2009-06-04 00:45:30",945038,1.985,100.9,11,0.676,12.2,105.2012,12.59,13.72,75.11,0,110.4,13.29,13.38,62.9
"2009-06-04 00:46:00",945039,2.598,117.8,7.976,1.323,13.65,105.2044,12.6,13.65,75.2,0,110.4,13.29,13.39,79.8
"2009-06-04 00:46:30",945040,2.036,122.6,11.38,1.065,13.62,105.2047,12.6,13.82,75.46,0,110.4,13.29,13.39,84.6
"2009-06-04 00:47:00",945041,1.911,103.9,9.57,0.785,12,105.2031,12.59,13.63,75.35,0,110.4,13.29,13.39,65.9
"2009-06-04 00:47:30",945042,2.318,98.5,12.1,0.991,12.8,105.1913,12.56,13.75,75.57,0,110.4,13.29,13.36,60.5
"2009-06-04 00:48:00",945043,2.571,95.2,9.78,0.971,13.44,105.1742,12.52,13.62,75.51,0,110.4,13.29,13.31,57.2
"2009-06-04 00:48:30",945044,1.962,77.57,5.74,0.118,11.87,105.1742,12.52,13.57,75.64,0,110.4,13.32,13.31,39.6
"2009-06-04 00:49:00",945045,3.217,70.28,5.018,1.19,12.79,105.1742,12.52,13.59,75.9,0,110.4,13.29,13.31,32.3
"2009-06-04 00:49:30",945046,4.328,71.84,5.947,1.256,14.82,105.1694,12.51,13.78,76.3,0,110.4,13.29,13.30,33.8
"2009-06-04 00:50:00",945047,3.409,63.81,7.949,1.171,12.97,105.1479,12.45,13.6,76.37,0,110.4,13.29,13.25,25.8
"2009-06-04 00:50:30",945048,3.855,65.3,5.037,1.309,13.5,105.1403,12.43,13.6,76.51,0,110.4,13.29,13.23,27.3
"2009-06-04 00:51:00",945049,2.4,61.32,6.303,0.318,11.48,105.1403,12.43,13.53,76.47,0,110.4,13.33,13.23,23.3
"2009-06-04 00:51:30",945050,2.106,58.15,3.511,0.312,11.57,105.1386,12.43,13.5,76.43,0,110.4,13.33,13.22,20.2
"2009-06-04 00:52:00",945051,3.792,64.62,7.349,1.207,14.15,105.1139,12.36,13.66,76.65,0,110.4,13.3,13.16,26.6
"2009-06-04 00:52:30",945052,2.678,59.63,4.367,1.028,13.11,105.1065,12.35,13.57,76.75,0,110.4,13.3,13.14,21.6
"2009-06-04 00:53:00",945053,2.502,59.85,8.68,1.144,12.84,105.1065,12.35,13.53,76.89,0,110.4,13.3,13.14,21.8
"2009-06-04 00:53:30",945054,2.906,62.4,6.678,1.478,13.92,105.1006,12.33,13.49,76.88,0,110.4,13.3,13.13,24.4
"2009-06-04 00:54:00",945055,2.078,60.98,11.17,1.377,13.13,105.0857,12.29,13.41,76.81,0,110.4,13.3,13.09,23.0
"2009-06-04 00:54:30",945056,2.144,64.85,9.13,0.798,12.31,105.0727,12.26,13.51,76.93,0,110.4,13.3,13.05,26.8
"2009-06-04 00:55:00",945057,2.732,68.1,15.72,1.485,14.39,105.0727,12.26,13.43,76.81,0,110.4,13.3,13.05,30.1
"2009-06-04 00:55:30",945058,1.805,41.94,10.37,1.025,12.67,105.071,12.25,13.42,76.75,0,110.4,13.3,13.05,3.9
"2009-06-04 00:56:00",945059,2.738,45.03,8.59,1.115,12.57,105.0558,12.22,13.41,76.77,0,110.4,13.3,13.01,7.0
"2009-06-04 00:56:30",945060,3.691,47.88,5.981,1.23,13.09,105.0392,12.17,13.39,76.81,0,110.4,13.31,12.97,9.9
"2009-06-04 00:57:00",945061,2.824,42.46,1.031,0.166,11.32,105.0389,12.17,13.29,76.9,0,110.4,13.34,12.97,4.5
"2009-06-04 00:57:30",945062,3.154,42.38,3.416,0.494,11.96,105.0389,12.17,13.39,77.26,0,110.4,13.34,12.97,4.4
"2009-06-04 00:58:00",945063,4.868,51.89,6.526,1.321,14.82,105.0271,12.14,13.33,77.39,0,110.4,13.31,12.94,13.9
"2009-06-04 00:58:30",945064,4.482,54.28,6.803,1.372,15.13,105.0073,12.09,13.39,77.62,0,110.3,13.31,12.89,16.3
"2009-06-04 00:59:00",945065,2.516,48.59,1.802,0.088,12.2,105.0051,12.09,13.3,77.57,0,110.3,13.34,12.88,10.6
"2009-06-04 00:59:30",945066,2.322,51.55,7.052,0.658,13.09,105.0054,12.09,13.35,77.6,0,110.3,13.34,12.88,13.5
"2009-06-04 01:00:00",945067,2.682,59.03,7.544,1.355,13.7,104.9927,12.05,13.21,77.38,0,110.3,13.31,12.85,21.0
"2009-06-04 01:00:30",945068,2.09,50.03,2.263,0.104,11.69,104.9766,12.01,13.17,77.32,0,110.3,13.34,12.81,12.0
"2009-06-04 01:01:00",945069,3.478,56.42,7.082,1.251,13.69,104.973,12,13.23,77.4,0,110.3,13.31,12.80,18.4
"2009-06-04 01:01:30",945070,3.896,50.87,4.404,1.442,13.64,104.9763,12.01,13.3,77.53,0,110.3,13.3,12.81,12.9
"2009-06-04 01:02:00",945071,3.249,40.8,0.956,0.459,11.37,104.9804,12.02,13.11,77.5,0,110.3,13.3,12.82,2.8
"2009-06-04 01:02:30",945072,3.416,40.7,0.912,0.093,11.64,104.986,12.04,13.11,77.61,0,110.3,13.34,12.83,2.7
"2009-06-04 01:03:00",945073,4.571,42.72,5.382,1.236,13.55,104.9806,12.02,13.14,77.73,0,110.3,13.3,12.82,4.7
"2009-06-04 01:03:30",945074,5.502,44.53,6.683,1.191,15.52,104.9597,11.97,13.28,77.92,0,110.3,13.3,12.76,6.5
"2009-06-04 01:04:00",945075,4.758,40.81,7.307,1.344,15.42,104.9611,11.97,13.37,78.07,0,110.3,13.3,12.77,2.8
"2009-06-04 01:04:30",945076,4.039,34.28,6.908,1.312,13.26,104.9635,11.98,13.1,77.8,0,110.3,13.3,12.77,356.3
"2009-06-04 01:05:00",945077,4.01,31.23,6.763,1.115,13.2,104.963,11.98,13.18,77.83,0,110.3,13.3,12.77,353.2
"2009-06-04 01:05:30",945078,4.879,31.79,6.69,1.325,13.4,104.9483,11.94,13.15,77.65,0,110.3,13.3,12.73,353.8
"2009-06-04 01:06:00",945079,5.585,28.58,5.362,1.596,13.51,104.9358,11.91,13.13,77.55,0,110.3,13.31,12.70,350.6
"2009-06-04 01:06:30",945080,4.715,22.02,1.431,0.273,11.34,104.9353,11.91,12.98,77.58,0,110.3,13.34,12.70,344.0
"2009-06-04 01:07:00",945081,4.315,25.26,1.591,0.217,11.79,104.9376,11.91,12.96,77.92,0,110.3,13.35,12.71,347.3
"2009-06-04 01:07:30",945082,5.298,27.58,6.779,1.095,13.29,104.9391,11.92,12.96,77.83,0,110.3,13.31,12.71,349.6
"2009-06-04 01:08:00",945083,6.658,32.06,6.159,1.318,15.54,104.9343,11.9,13.21,77.91,0,110.3,13.31,12.70,354.1
"2009-06-04 01:08:30",945084,6.767,30.55,6.195,1.23,15.81,104.9216,11.87,13.16,78.02,0,110.3,13.31,12.67,352.5
"2009-06-04 01:09:00",945085,5.903,25.83,6.996,1.393,13.96,104.9171,11.86,13.01,78.16,0,110.3,13.31,12.65,347.8
"2009-06-04 01:09:30",945086,4.901,22.18,4.901,0.788,12.09,104.9072,11.84,13.03,78.43,0,110.3,13.31,12.63,344.2
"2009-06-04 01:10:00",945087,5.677,25.76,7.05,1.138,12.64,104.9053,11.83,12.9,78.4,0,110.3,13.31,12.62,347.8
"2009-06-04 01:10:30",945088,4.828,19.53,1.073,0.145,11.17,104.9053,11.83,12.89,78.34,0,110.3,13.35,12.62,341.5
"2009-06-04 01:11:00",945089,4.614,18.94,0.94,0.151,11.47,104.9053,11.83,12.99,78.27,0,110.3,13.35,12.62,340.9
"2009-06-04 01:11:30",945090,5.644,25.27,6.516,1.437,13.99,104.9053,11.83,12.93,78.05,0,110.4,13.31,12.62,347.3
"2009-06-04 01:12:00",945091,4.699,24.47,6.065,1.121,13.55,104.9013,11.82,13,78.05,0,110.3,13.31,12.61,346.5
"2009-06-04 01:12:30",945092,5.449,31.13,6.616,1.302,15.38,104.8872,11.78,13.06,78.02,0,110.3,13.32,12.58,353.1
"2009-06-04 01:13:00",945093,5.809,32.12,6.307,1.198,15.74,104.8726,11.75,13.09,77.96,0,110.3,13.32,12.54,354.1
"2009-06-04 01:13:30",945094,5.121,24.61,6.849,1.287,13.65,104.8714,11.74,13,77.81,0,110.3,13.32,12.54,346.6
"2009-06-04 01:14:00",945095,4.696,19.92,4.688,0.927,11.55,104.8714,11.74,12.81,77.53,0,110.3,13.32,12.54,341.9
"2009-06-04 01:14:30",945096,4.706,17.95,1.318,0.334,11.07,104.8714,11.74,12.79,77.47,0,110.3,13.35,12.54,340.0
"2009-06-04 01:15:00",945097,4.791,19.29,4.103,0.846,12.3,104.8714,11.74,12.94,77.49,0,110.3,13.32,12.54,341.3
"2009-06-04 01:15:30",945098,5.779,22,6.377,1.268,13.19,104.8714,11.74,12.86,77.31,0,110.3,13.32,12.54,344.0
"2009-06-04 01:16:00",945099,4.865,18.45,7.789,1.385,13.45,104.8706,11.74,12.88,77.29,0,110.3,13.32,12.53,340.5
"2009-06-04 01:16:30",945100,5.183,19.17,7.251,1.263,14.96,104.8635,11.72,12.96,77.42,0,110.3,13.32,12.52,341.2
"2009-06-04 01:17:00",945101,5.423,20.66,6.741,1.165,16,104.859,11.71,13.01,77.4,0,110.3,13.32,12.50,342.7
"2009-06-04 01:17:30",945102,5.524,17.33,6.469,1.359,15.04,104.8489,11.69,12.96,77.12,0,110.3,13.32,12.48,339.3
"2009-06-04 01:18:00",945103,4.168,6.565,1.789,0.295,11.56,104.8382,11.66,12.8,76.73,0,110.3,13.35,12.45,328.6
"2009-06-04 01:18:30",945104,3.845,4.735,2.905,0.299,11.22,104.8385,11.66,12.73,76.32,0,110.3,13.35,12.45,326.7
"2009-06-04 01:19:00",945105,3.508,9.37,2.794,0.227,11.6,104.8391,11.66,12.72,76.05,0,110.3,13.35,12.45,331.4
"2009-06-04 01:19:30",945106,5.01,14.53,6.887,1.46,14.2,104.8397,11.66,12.9,76.31,0,110.3,13.31,12.45,336.5
"2009-06-04 01:20:00",945107,3.901,12.28,3.256,0.437,12.3,104.8415,11.67,12.76,76.35,0,110.3,13.35,12.46,334.3
"2009-06-04 01:20:30",945108,3.796,17.29,1.527,0.191,12.26,104.8429,11.67,12.71,76.37,0,110.3,13.35,12.46,339.3
"2009-06-04 01:21:00",945109,3.704,16.63,2.726,0.274,12.91,104.8447,11.67,12.82,76.48,0,110.3,13.35,12.47,338.6
"2009-06-04 01:21:30",945110,5.73,25.52,6.493,1.283,16.6,104.845,11.68,12.89,76.43,0,110.3,13.32,12.47,347.5
"2009-06-04 01:22:00",945111,5.519,13.27,8.53,1.156,16.35,104.8471,11.68,12.97,76.2,0,110.3,13.32,12.47,335.3
"2009-06-04 01:22:30",945112,5.036,3.606,7.81,1.006,13.31,104.8491,11.69,12.82,75.26,0,110.3,13.32,12.48,325.6
"2009-06-04 01:23:00",945113,4.3,359.1,26.83,0.326,11.32,104.8491,11.69,12.75,74.22,0,110.3,13.35,12.48,321.1
"2009-06-04 01:23:30",945114,5.753,16.27,73.47,1.315,12.95,104.8474,11.68,12.75,74.12,0,110.3,13.32,12.47,338.3
"2009-06-04 01:24:00",945115,5.962,12.36,79.51,1.646,13.71,104.8483,11.68,12.81,73.88,0,110.3,13.33,12.48,334.4
"2009-06-04 01:24:30",945116,4.571,2.035,44.93,0.277,11.75,104.843,11.67,12.67,73.6,0,110.3,13.36,12.46,324.0
"2009-06-04 01:25:00",945117,4.246,1.645,30.52,0.287,12.12,104.8444,11.67,12.67,73.01,0,110.3,13.36,12.47,323.6
"2009-06-04 01:25:30",945118,5.754,9.7,6.262,1.228,15.17,104.8472,11.68,12.89,72.85,0,110.3,13.33,12.47,331.7
"2009-06-04 01:26:00",945119,6.156,15.79,6.296,1.224,16.11,104.8521,11.69,12.89,73.25,0,110.3,13.33,12.49,337.8
"2009-06-04 01:26:30",945120,3.893,8.01,3.719,0.415,12.82,104.8573,11.71,12.81,73.53,0,110.3,13.33,12.50,330.0
"2009-06-04 01:27:00",945121,4.762,20.58,6.013,1.197,14.19,104.8567,11.71,12.73,73.78,0,110.3,13.33,12.50,342.6
"2009-06-04 01:27:30",945122,3.988,19.26,5.326,0.71,12.8,104.8614,11.72,12.9,74.22,0,110.3,13.36,12.51,341.3
"2009-06-04 01:28:00",945123,4.699,22.46,6.4,1.287,13.43,104.8651,11.73,12.73,74.17,0,110.3,13.33,12.52,344.5
"2009-06-04 01:28:30",945124,3.868,18.7,0.939,0.171,12.01,104.8697,11.74,12.74,74.3,0,110.3,13.36,12.53,340.7
"2009-06-04 01:29:00",945125,3.955,19.51,1.673,0.142,12.06,104.8731,11.75,12.69,74.28,0,110.3,13.36,12.54,341.5
"2009-06-04 01:29:30",945126,3.714,16.29,1.894,0.292,12.26,104.8731,11.75,12.7,74.14,0,110.3,13.36,12.54,338.3
"2009-06-04 01:30:00",945127,4.419,21.16,6.713,1.194,14.41,104.8731,11.75,12.86,73.91,0,110.3,13.33,12.54,343.2
"2009-06-04 01:30:30",945128,5.271,24.81,6.195,1.221,15.53,104.8731,11.75,12.9,73.65,0,110.3,13.33,12.54,346.8
"2009-06-04 01:31:00",945129,4.86,22.66,6.925,1.289,14.98,104.8731,11.75,12.9,73.38,0,110.3,13.33,12.54,344.7
"2009-06-04 01:31:30",945130,3.515,14.31,2.177,0.243,12.16,104.8731,11.75,12.75,72.8,0,110.3,13.36,12.54,336.3
"2009-06-04 01:32:00",945131,5.249,26.2,5.653,1.234,15.77,104.8731,11.75,12.98,72.82,0,110.3,13.33,12.54,348.2
"2009-06-04 01:32:30",945132,4.794,24.94,6.495,1.405,14.83,104.8753,11.75,12.91,72.87,0,110.3,13.33,12.55,346.9
"2009-06-04 01:33:00",945133,3.387,19.74,1.779,0.17,11.82,104.8877,11.79,12.74,72.95,0,110.3,13.36,12.58,341.7
"2009-06-04 01:33:30",945134,3.215,17.32,1.512,0.243,11.71,104.8959,11.81,12.75,73.08,0,110.3,13.36,12.60,339.3
"2009-06-04 01:34:00",945135,3.436,18.4,1.438,0.211,12.04,104.8971,11.81,12.77,73.03,0,110.3,13.36,12.60,340.4
"2009-06-04 01:34:30",945136,3.396,19.17,1.153,0.193,12.56,104.9033,11.82,12.79,73,0,110.3,13.33,12.62,341.2
"2009-06-04 01:35:00",945137,4.539,25.84,6.729,1.364,14.85,104.9069,11.83,12.89,73.12,0,110.3,13.33,12.63,347.8
"2009-06-04 01:35:30",945138,4.83,26.61,7.082,1.396,15.34,104.9069,11.83,12.94,73.18,0,110.3,13.33,12.63,348.6
"2009-06-04 01:36:00",945139,3.877,26.65,6.706,1.092,14.37,104.9069,11.83,12.96,73.18,0,110.3,13.33,12.63,348.6
"2009-06-04 01:36:30",945140,3.662,25.21,4.683,0.931,13.2,104.9069,11.83,12.9,73.06,0,110.3,13.33,12.63,347.2
"2009-06-04 01:37:00",945141,4.164,29.17,7.278,1.307,14.56,104.9069,11.83,12.9,72.96,0,110.3,13.33,12.63,351.2
"2009-06-04 01:37:30",945142,4.58,28.47,7.247,1.397,14.26,104.9078,11.84,12.94,72.92,0,110.3,13.33,12.63,350.5
"2009-06-04 01:38:00",945143,3.665,27.93,6.155,1.115,13.69,104.9131,11.85,13.04,72.94,0,110.3,13.33,12.64,349.9
"2009-06-04 01:38:30",945144,3.201,27.63,2.274,0.171,12.22,104.927,11.89,12.86,72.78,0,110.3,13.36,12.68,349.6
"2009-06-04 01:39:00",945145,3.054,32.74,1.533,0.176,12.34,104.9394,11.92,12.86,72.82,0,110.3,13.36,12.71,354.7
"2009-06-04 01:39:30",945146,3.673,37.93,6.849,1.318,14.36,104.9408,11.92,12.98,72.88,0,110.3,13.33,12.71,359.9
"2009-06-04 01:40:00",945147,2.998,36.25,5.676,1.099,14.44,104.9408,11.92,13.02,72.84,0,110.3,13.33,12.71,358.2
"2009-06-04 01:40:30",945148,2.247,32.02,4.469,0.851,13.28,104.9408,11.92,12.9,72.65,0,110.3,13.34,12.71,354.0
"2009-06-04 01:41:00",945149,2.016,31.56,1.53,0.076,12.93,104.9447,11.93,13,72.71,0,110.3,13.37,12.72,353.6
"2009-06-04 01:41:30",945150,3.306,37.35,7.214,1.348,15.29,104.9537,11.95,13.03,72.69,0,110.3,13.34,12.75,359.4
"2009-06-04 01:42:00",945151,3.133,36.57,7.859,1.48,14.95,104.9698,12,13.07,72.74,0,110.3,13.34,12.79,358.6
"2009-06-04 01:42:30",945152,2.592,32.16,7.273,1.059,14.08,104.9746,12.01,13.13,72.82,0,110.3,13.34,12.80,354.2
"2009-06-04 01:43:00",945153,2.149,31.24,4.354,1.043,12.9,104.9746,12.01,12.97,72.67,0,110.3,13.34,12.80,353.2
"2009-06-04 01:43:30",945154,1.757,30.92,1.238,0.1,12.23,104.9746,12.01,12.98,72.65,0,110.3,13.37,12.80,352.9
"2009-06-04 01:44:00",945155,2.823,36.57,8.25,1.278,14.32,104.9746,12.01,13.04,72.71,0,110.3,13.34,12.80,358.6
"2009-06-04 01:44:30",945156,1.692,35.93,4.753,0.715,13.33,104.978,12.02,13.16,72.89,0,110.3,13.34,12.81,357.9
"2009-06-04 01:45:00",945157,2.08,38.67,5.809,1.142,13.89,104.9963,12.06,13.06,73,0,110.3,13.34,12.86,0.7
"2009-06-04 01:45:30",945158,1.339,34.86,2.458,0.169,12.68,105.0045,12.08,13.05,73.09,0,110.3,13.38,12.88,356.9
"2009-06-04 01:46:00",945159,2.274,39.69,7.579,1.316,14.64,105.0085,12.09,13.13,73.21,0,110.3,13.34,12.89,1.7
"2009-06-04 01:46:30",945160,1.783,37.2,7.721,1.231,14.26,105.0085,12.09,13.23,73.24,0,110.3,13.34,12.89,359.2
"2009-06-04 01:47:00",945161,1.149,29.14,5.984,0.677,12.96,105.0085,12.09,13.07,73.17,0,110.3,13.34,12.89,351.1
"2009-06-04 01:47:30",945162,1.064,23.39,3.419,0.191,12.6,105.0085,12.09,13.08,73.23,0,110.3,13.38,12.89,345.4
"2009-06-04 01:48:00",945163,1.033,19.93,3.459,0.208,12.72,105.0085,12.09,13.1,73.24,0,110.3,13.38,12.89,341.9
"2009-06-04 01:48:30",945164,1.265,15.43,8.75,0.99,14.11,105.0099,12.1,13.27,73.39,0,110.3,13.34,12.89,337.4